Location: Neuvy Saint Sepulchre
(46.5953°N, 1.8122°E)
Time: 15:16:22
(UTC+02:00)

ISS - Pass Details

Date: 11 May 2026
Orbit: 414 x 424 km, 51.6° (Epoch: 21 May)

Event Time Altitude Azimuth Distance (km) Brightness Sun altitude
Rises 01:41:33 0° 292° (WNW) 2,355 0.4 -25.6°
Reaches altitude 10° 01:43:44 10° 300° (WNW) 1,492 -0.6 -25.6°
Enters shadow 01:45:03 20° 313° (NW) 1,022 -1.4 -25.6°
